logo tempoitalia

Diretta Meteo Reggio Calabria, Italiavenerdì 23 luglio ore 19:50

Mappa
Sereno 28 °C Sereno 24 Ore: T.min 25 T.max 33
Ponente Nord Km/h 20.3 Punto di rugiada: 16 °C Umidità: 48% Visibilità: 10 Km
Il sole sorge alle: 05:51 Il sole tramonta alle: 20:16
23 Luglio 2021 19:50 tempo osservato: Sereno Sereno 28 48 1014 vento: Nord N 20.3
23 Luglio 2021 19:20 tempo osservato: Sereno Sereno 28 48 1014 vento: Nord N 20.3
23 Luglio 2021 18:50 tempo osservato: Sereno Sereno 29 48 1014 vento: Nord N 24
23 Luglio 2021 18:20 tempo osservato: Sereno Sereno 29 45 1014 vento: Nord N 22.2
23 Luglio 2021 17:50 tempo osservato: Sereno Sereno 30 42 1014 vento: Nord N/NO 24
23 Luglio 2021 17:20 tempo osservato: Sereno Sereno 31 37 1014 vento: Nord N 25.9
23 Luglio 2021 16:50 tempo osservato: Sereno Sereno 32 31 1014 vento: Nord N 27.8
23 Luglio 2021 16:20 tempo osservato: Sereno Sereno 33 27 1014 vento: Nord N 22.2
23 Luglio 2021 15:50 tempo osservato: Sereno Sereno 33 29 1014 vento: Nord N/NO 24
23 Luglio 2021 15:20 tempo osservato: Sereno Sereno 32 33 1014 vento: Nord N/NO 24
23 Luglio 2021 14:20 tempo osservato: Sereno Sereno 33 29 1015 vento: Nord N 24
23 Luglio 2021 13:50 tempo osservato: Sereno Sereno 33 33 1015 vento: Nord N 24
23 Luglio 2021 13:20 tempo osservato: Sereno Sereno 32 35 1015 vento: Nord N 22.2
23 Luglio 2021 12:50 tempo osservato: Sereno Sereno 32 35 1015 vento: Nord N/NO 22.2
23 Luglio 2021 12:20 tempo osservato: Sereno Sereno 32 35 1015 vento: Nord N 20.3
23 Luglio 2021 11:50 tempo osservato: Sereno Sereno 31 40 1015 vento: Nord N 22.2
23 Luglio 2021 11:20 tempo osservato: Sereno Sereno 31 43 1016 vento: Nord N 22.2
23 Luglio 2021 10:50 tempo osservato: Sereno Sereno 30 51 1016 vento: Nord N/NO 22.2
23 Luglio 2021 10:20 tempo osservato: Sereno Sereno 30 51 1016 vento: Nord N/NO 20.3
23 Luglio 2021 09:50 tempo osservato: Sereno Sereno 29 58 1016 vento: Nord N 24
23 Luglio 2021 09:20 tempo osservato: Sereno Sereno 28 61 1016 vento: Nord N 20.3
23 Luglio 2021 08:50 tempo osservato: Sereno Sereno 28 65 1016 vento: Nord N 22.2
23 Luglio 2021 08:20 tempo osservato: Sereno Sereno 27 69 1016 vento: Nord N 20.3
23 Luglio 2021 07:50 tempo osservato: Sereno Sereno 27 69 1015 vento: Nord N 20.3
23 Luglio 2021 07:20 tempo osservato: Sereno Sereno 26 73 1015 vento: Nord N/NE 18.5
23 Luglio 2021 06:50 tempo osservato: Sereno Sereno 25 78 1015 vento: Nord N/NE 16.7
23 Luglio 2021 06:20 tempo osservato: Sereno Sereno 25 73 1015 vento: Nord N 20.3
23 Luglio 2021 05:50 tempo osservato: Sereno Sereno 25 73 1015 vento: Nord N 22.2
23 Luglio 2021 05:20 tempo osservato: Sereno Sereno 26 61 1015 vento: Nord N/NE 14.8
23 Luglio 2021 04:50 tempo osservato: Sereno Sereno 26 57 1015 vento: Nord N/NE 16.7
23 Luglio 2021 04:20 tempo osservato: Sereno Sereno 25 61 1015 vento: Nord N/NE 14.8
23 Luglio 2021 03:50 tempo osservato: Sereno Sereno 26 61 1015 vento: Nord N/NE 18.5
23 Luglio 2021 03:20 tempo osservato: Sereno Sereno 25 69 1015 vento: Nord N/NE 16.7
23 Luglio 2021 02:50 tempo osservato: Sereno Sereno 25 73 1015 vento: Nord N/NE 16.7
23 Luglio 2021 02:20 tempo osservato: Sereno Sereno 26 69 1016 vento: Nord N/NE 16.7
23 Luglio 2021 01:50 tempo osservato: Sereno Sereno 26 69 1016 vento: Nord N/NE 16.7
23 Luglio 2021 01:20 tempo osservato: Sereno Sereno 26 73 1016 vento: Nord N 18.5
23 Luglio 2021 00:50 tempo osservato: Sereno Sereno 26 73 1016 vento: Nord N 18.5
23 Luglio 2021 00:20 tempo osservato: Sereno Sereno 26 73 1016 vento: Nord N 18.5
22 Luglio 2021 23:50 tempo osservato: Sereno Sereno 26 69 1016 vento: Nord N 16.7
22 Luglio 2021 23:20 tempo osservato: Sereno Sereno 26 69 1016 vento: Nord N 16.7
22 Luglio 2021 22:50 tempo osservato: Sereno Sereno 26 73 1016 vento: Nord N 16.7
22 Luglio 2021 22:20 tempo osservato: Sereno Sereno 26 69 1016 vento: Nord N 18.5
22 Luglio 2021 21:50 tempo osservato: Sereno Sereno 27 65 1016 vento: Nord N 20.3
22 Luglio 2021 21:20 tempo osservato: Sereno Sereno 27 61 1016 vento: Nord N 22.2
22 Luglio 2021 20:50 tempo osservato: Sereno Sereno 27 61 1016 vento: Nord N 22.2